�������l�o���
Date,Time,MP-1(��Sv/h),MP-2(��Sv/h),MP-3(��Sv/h),MP-4(��Sv/h),MP-5(��Sv/h),MP-6(��Sv/h),MP-7(��Sv/h),MP-8(��Sv/h),����,����(m/s),���J
2020/10/04,00:00,0.674,0.965,0.614,1.176,0.847,0.388,0.676,0.636,��쐼,1.9,��
2020/10/04,00:10,0.674,0.963,0.613,1.176,0.848,0.388,0.676,0.637,��쐼,2.3,��
2020/10/04,00:20,0.674,0.964,0.613,1.176,0.847,0.387,0.673,0.635,��쐼,2.3,��
2020/10/04,00:30,0.675,0.962,0.613,1.175,0.847,0.388,0.676,0.636,��쐼,2.3,��
2020/10/04,00:40,0.672,0.964,0.612,1.176,0.849,0.388,0.675,0.635,��쐼,2.0,��
2020/10/04,00:50,0.675,0.962,0.612,1.175,0.848,0.388,0.675,0.637,��쐼,2.2,��
2020/10/04,01:00,0.673,0.963,0.615,1.173,0.849,0.389,0.675,0.636,��,2.6,��
2020/10/04,01:10,0.674,0.963,0.613,1.176,0.846,0.388,0.675,0.634,��,2.3,��
2020/10/04,01:20,0.674,0.964,0.614,1.175,0.847,0.388,0.675,0.635,��,2.0,��
2020/10/04,01:30,0.673,0.962,0.613,1.175,0.848,0.388,0.675,0.636,��,1.7,��
2020/10/04,01:40,0.673,0.962,0.611,1.175,0.847,0.389,0.676,0.636,��,2.2,��
2020/10/04,01:50,0.675,0.963,0.613,1.175,0.847,0.389,0.676,0.634,�쐼,2.0,��
2020/10/04,02:00,0.675,0.964,0.613,1.173,0.847,0.387,0.676,0.635,�쐼,2.5,��
2020/10/04,02:10,0.674,0.963,0.613,1.174,0.847,0.388,0.675,0.634,�쐼,2.5,��
2020/10/04,02:20,0.674,0.960,0.611,1.175,0.849,0.388,0.677,0.636,�쐼,2.6,��
2020/10/04,02:30,0.674,0.963,0.611,1.173,0.847,0.389,0.674,0.636,�쐼,2.5,��
2020/10/04,02:40,0.674,0.964,0.613,1.173,0.848,0.389,0.675,0.637,�쐼,2.5,��
2020/10/04,02:50,0.673,0.963,0.612,1.175,0.849,0.387,0.675,0.637,�쐼,2.3,��
2020/10/04,03:00,0.675,0.963,0.613,1.177,0.847,0.388,0.674,0.636,���쐼,2.9,��
2020/10/04,03:10,0.674,0.964,0.612,1.176,0.849,0.389,0.675,0.635,�쐼,3.0,��
2020/10/04,03:20,0.674,0.963,0.614,1.175,0.848,0.389,0.674,0.636,�쐼,3.1,��
2020/10/04,03:30,0.675,0.961,0.614,1.175,0.847,0.389,0.676,0.636,��쐼,1.5,��
2020/10/04,03:40,0.676,0.964,0.613,1.174,0.848,0.388,0.676,0.637,���쐼,1.5,��
2020/10/04,03:50,0.676,0.963,0.613,1.174,0.847,0.387,0.675,0.635,�쐼,1.2,��
2020/10/04,04:00,0.673,0.963,0.614,1.174,0.848,0.389,0.675,0.635,�쐼,0.9,��
2020/10/04,04:10,0.675,0.962,0.613,1.172,0.848,0.389,0.677,0.636,��쓌,1.7,��
2020/10/04,04:20,0.673,0.962,0.613,1.173,0.847,0.388,0.677,0.636,��,1.2,��
2020/10/04,04:30,0.674,0.965,0.613,1.175,0.849,0.388,0.674,0.635,��쐼,1.1,��
2020/10/04,04:40,0.675,0.962,0.611,1.175,0.848,0.389,0.676,0.636,�쐼,1.2,��
2020/10/04,04:50,0.675,0.962,0.614,1.176,0.846,0.389,0.677,0.637,�쐼,0.9,��
2020/10/04,05:00,0.674,0.965,0.613,1.174,0.848,0.388,0.675,0.635,��쐼,0.9,��
2020/10/04,05:10,0.676,0.964,0.612,1.176,0.848,0.388,0.676,0.637,�쐼,0.9,��
2020/10/04,05:20,0.676,0.963,0.612,1.175,0.850,0.388,0.676,0.636,��쐼,0.9,��
2020/10/04,05:30,0.675,0.961,0.612,1.177,0.846,0.388,0.676,0.636,-,CALM,��
2020/10/04,05:40,0.674,0.964,0.613,1.177,0.847,0.388,0.675,0.637,��,0.9,��
2020/10/04,05:50,0.673,0.961,0.613,1.175,0.846,0.389,0.676,0.636,��,0.9,��
2020/10/04,06:00,0.674,0.964,0.611,1.177,0.847,0.389,0.675,0.637,��,1.4,��
2020/10/04,06:10,0.676,0.964,0.613,1.175,0.846,0.388,0.675,0.637,�쓌,1.1,��
2020/10/04,06:20,0.673,0.963,0.613,1.176,0.848,0.388,0.676,0.635,��쓌,1.5,��
2020/10/04,06:30,0.676,0.963,0.615,1.176,0.846,0.388,0.676,0.636,��,0.9,��
2020/10/04,06:40,0.677,0.964,0.613,1.176,0.848,0.388,0.674,0.636,��,0.9,��
2020/10/04,06:50,0.676,0.964,0.614,1.175,0.847,0.390,0.675,0.637,-,CALM,��
2020/10/04,07:00,0.676,0.964,0.614,1.175,0.848,0.389,0.675,0.636,�쐼,1.4,��
2020/10/04,07:10,0.676,0.964,0.614,1.176,0.849,0.389,0.676,0.636,���쐼,1.9,��
2020/10/04,07:20,0.676,0.963,0.615,1.175,0.847,0.389,0.675,0.637,���쐼,1.5,��
2020/10/04,07:30,0.678,0.965,0.614,1.176,0.846,0.389,0.676,0.636,��,1.4,��
2020/10/04,07:40,0.677,0.963,0.614,1.173,0.848,0.388,0.675,0.636,���k��,1.2,��
2020/10/04,07:50,0.677,0.964,0.614,1.177,0.847,0.388,0.676,0.636,�k��,1.2,��
2020/10/04,08:00,0.676,0.964,0.614,1.174,0.849,0.388,0.675,0.636,���k��,1.1,��
2020/10/04,08:10,0.675,0.965,0.616,1.176,0.850,0.387,0.674,0.636,��,1.2,��
2020/10/04,08:20,0.676,0.966,0.614,1.175,0.849,0.389,0.674,0.637,-,CALM,��
2020/10/04,08:30,0.675,0.962,0.615,1.177,0.850,0.389,0.673,0.635,�k�k��,0.9,��
2020/10/04,08:40,0.677,0.966,0.615,1.178,0.849,0.388,0.673,0.634,���k��,1.4,��
2020/10/04,08:50,0.676,0.964,0.615,1.175,0.851,0.387,0.675,0.635,�k��,2.3,��
2020/10/04,09:00,0.676,0.964,0.617,1.178,0.850,0.388,0.674,0.635,�k��,1.7,��
2020/10/04,09:10,0.678,0.964,0.615,1.176,0.849,0.386,0.675,0.636,���k��,0.8,��
2020/10/04,09:20,0.677,0.965,0.615,1.177,0.849,0.387,0.675,0.635,-,CALM,��
2020/10/04,09:30,0.676,0.963,0.615,1.180,0.850,0.388,0.675,0.635,���쓌,0.8,��
2020/10/04,09:40,0.674,0.964,0.615,1.177,0.847,0.388,0.675,0.635,��,2.0,��
2020/10/04,09:50,0.673,0.961,0.615,1.175,0.848,0.386,0.676,0.636,��,2.3,��
2020/10/04,10:00,0.674,0.964,0.613,1.177,0.847,0.387,0.675,0.635,���쓌,2.0,��
2020/10/04,10:10,0.675,0.961,0.613,1.178,0.848,0.387,0.675,0.634,���쓌,2.0,��
2020/10/04,10:20,0.676,0.963,0.615,1.178,0.848,0.387,0.675,0.636,�쓌,2.3,��
2020/10/04,10:30,0.675,0.961,0.615,1.177,0.847,0.387,0.675,0.635,��,1.2,��
2020/10/04,10:40,0.674,0.961,0.614,1.176,0.848,0.388,0.675,0.636,��쓌,1.4,��
2020/10/04,10:50,0.677,0.966,0.614,1.178,0.848,0.387,0.675,0.635,�쓌,1.5,��
2020/10/04,11:00,0.676,0.963,0.615,1.178,0.847,0.387,0.675,0.634,��,2.3,��
2020/10/04,11:10,0.675,0.965,0.614,1.178,0.849,0.386,0.675,0.636,��쓌,2.6,��
2020/10/04,11:20,0.676,0.964,0.616,1.177,0.847,0.388,0.674,0.635,��,1.9,��
2020/10/04,11:30,0.675,0.963,0.614,1.178,0.847,0.388,0.675,0.634,��쓌,1.1,��
2020/10/04,11:40,0.677,0.963,0.616,1.176,0.849,0.387,0.675,0.635,��,0.9,��
2020/10/04,11:50,0.676,0.963,0.614,1.175,0.848,0.389,0.675,0.634,��쓌,3.0,��
2020/10/04,12:00,0.675,0.964,0.615,1.177,0.847,0.386,0.675,0.636,��쓌,2.3,��
2020/10/04,12:10,0.676,0.963,0.615,1.177,0.851,0.387,0.674,0.634,��쓌,2.6,��
2020/10/04,12:20,0.674,0.965,0.614,1.177,0.850,0.387,0.676,0.633,��,1.7,��
2020/10/04,12:30,0.675,0.963,0.614,1.177,0.847,0.387,0.676,0.635,��쓌,1.9,��
2020/10/04,12:40,0.675,0.963,0.617,1.175,0.848,0.388,0.676,0.634,��,1.7,��
2020/10/04,12:50,0.675,0.964,0.615,1.177,0.849,0.387,0.675,0.634,��쓌,1.9,��
2020/10/04,13:00,0.677,0.966,0.616,1.178,0.850,0.388,0.676,0.634,��,2.3,��
2020/10/04,13:10,0.676,0.963,0.616,1.175,0.852,0.387,0.676,0.635,��,2.3,��
2020/10/04,13:20,0.677,0.964,0.615,1.179,0.851,0.387,0.677,0.636,��,2.8,��
2020/10/04,13:30,0.676,0.964,0.613,1.177,0.848,0.388,0.675,0.635,��쓌,3.5,��
2020/10/04,13:40,0.675,0.965,0.614,1.177,0.850,0.387,0.675,0.636,��쓌,4.0,��
2020/10/04,13:50,0.674,0.964,0.614,1.179,0.849,0.387,0.676,0.634,��,5.1,��
2020/10/04,14:00,0.676,0.963,0.616,1.177,0.850,0.387,0.676,0.633,��쓌,5.1,��
2020/10/04,14:10,0.675,0.965,0.614,1.177,0.850,0.387,0.675,0.635,��,5.5,��
2020/10/04,14:20,0.675,0.964,0.613,1.178,0.849,0.388,0.675,0.634,��,6.4,��
2020/10/04,14:30,0.675,0.963,0.614,1.176,0.848,0.385,0.675,0.634,��,5.3,��
2020/10/04,14:40,0.675,0.963,0.613,1.178,0.852,0.387,0.677,0.635,��,4.0,��
2020/10/04,14:50,0.674,0.964,0.613,1.178,0.851,0.388,0.678,0.634,��쓌,5.4,��
2020/10/04,15:00,0.675,0.965,0.613,1.178,0.851,0.387,0.675,0.633,��,4.6,��
2020/10/04,15:10,0.677,0.963,0.613,1.175,0.851,0.388,0.675,0.634,��,5.2,��
2020/10/04,15:20,0.675,0.968,0.613,1.177,0.850,0.389,0.677,0.635,��,3.7,��
2020/10/04,15:30,0.675,0.967,0.613,1.178,0.852,0.387,0.677,0.635,��쐼,3.5,��
2020/10/04,15:40,0.675,0.966,0.613,1.179,0.850,0.386,0.675,0.634,��,3.7,��
2020/10/04,15:50,0.677,0.965,0.614,1.181,0.850,0.388,0.675,0.636,��,3.7,��
2020/10/04,16:00,0.676,0.966,0.613,1.180,0.849,0.389,0.676,0.636,��,4.2,��
2020/10/04,16:10,0.676,0.967,0.614,1.179,0.850,0.386,0.677,0.634,��,4.7,��
2020/10/04,16:20,0.676,0.969,0.614,1.178,0.847,0.388,0.677,0.635,��,4.9,��
2020/10/04,16:30,0.675,0.969,0.612,1.178,0.852,0.389,0.677,0.635,��,5.1,��
2020/10/04,16:40,0.676,0.966,0.611,1.178,0.850,0.390,0.676,0.636,��,5.7,��
2020/10/04,16:50,0.676,0.967,0.613,1.175,0.848,0.388,0.675,0.636,��,4.8,��
2020/10/04,17:00,0.676,0.969,0.614,1.178,0.849,0.387,0.676,0.635,��,5.3,��
2020/10/04,17:10,0.675,0.970,0.614,1.179,0.849,0.389,0.675,0.636,��,4.9,��
2020/10/04,17:20,0.676,0.972,0.617,1.182,0.850,0.391,0.677,0.638,��,5.9,��
2020/10/04,17:30,0.677,0.972,0.614,1.179,0.849,0.389,0.679,0.637,��,6.7,��
2020/10/04,17:40,0.677,0.972,0.615,1.181,0.852,0.389,0.676,0.637,��,6.9,��
2020/10/04,17:50,0.675,0.970,0.618,1.180,0.852,0.388,0.677,0.636,��,5.5,��
2020/10/04,18:00,0.676,0.972,0.615,1.182,0.853,0.389,0.677,0.638,��,6.9,��
2020/10/04,18:10,0.679,0.970,0.616,1.180,0.852,0.388,0.676,0.637,��,6.5,��
2020/10/04,18:20,0.677,0.970,0.616,1.179,0.853,0.390,0.678,0.636,��,6.1,��
2020/10/04,18:30,0.676,0.972,0.616,1.180,0.853,0.388,0.678,0.637,��,6.4,��
2020/10/04,18:40,0.677,0.970,0.617,1.179,0.853,0.389,0.676,0.637,��,6.4,��
2020/10/04,18:50,0.678,0.973,0.617,1.179,0.852,0.388,0.678,0.637,��,5.8,��
2020/10/04,19:00,0.677,0.968,0.619,1.181,0.853,0.388,0.678,0.638,��,5.8,��
2020/10/04,19:10,0.677,0.969,0.617,1.178,0.852,0.389,0.678,0.638,��쐼,6.1,��
2020/10/04,19:20,0.677,0.970,0.616,1.180,0.852,0.389,0.677,0.638,��쐼,4.4,��
2020/10/04,19:30,0.679,0.969,0.616,1.180,0.852,0.390,0.679,0.638,��쐼,4.4,��
2020/10/04,19:40,0.679,0.970,0.616,1.180,0.853,0.391,0.677,0.638,��,5.4,��
2020/10/04,19:50,0.677,0.970,0.618,1.178,0.849,0.388,0.678,0.636,��,4.4,��
2020/10/04,20:00,0.677,0.968,0.616,1.181,0.852,0.389,0.678,0.636,��,3.2,��
2020/10/04,20:10,0.679,0.972,0.618,1.179,0.853,0.389,0.677,0.636,��쓌,3.6,��
2020/10/04,20:20,0.679,0.971,0.616,1.180,0.852,0.389,0.679,0.638,��,3.8,��
2020/10/04,20:30,0.679,0.969,0.616,1.179,0.852,0.389,0.679,0.637,��쓌,3.3,��
2020/10/04,20:40,0.679,0.968,0.616,1.179,0.852,0.390,0.678,0.639,��,3.6,��
2020/10/04,20:50,0.679,0.969,0.615,1.181,0.851,0.389,0.679,0.637,��,4.2,��
2020/10/04,21:00,0.679,0.970,0.616,1.178,0.853,0.390,0.677,0.636,��,5.1,��
2020/10/04,21:10,0.679,0.970,0.615,1.179,0.854,0.389,0.677,0.637,��,6.0,��
2020/10/04,21:20,0.680,0.969,0.616,1.180,0.851,0.391,0.677,0.636,��쐼,4.5,��
2020/10/04,21:30,0.678,0.969,0.616,1.182,0.851,0.389,0.676,0.638,��,4.7,��
2020/10/04,21:40,0.677,0.968,0.615,1.179,0.852,0.390,0.677,0.637,��,4.7,��
2020/10/04,21:50,0.678,0.968,0.616,1.179,0.851,0.389,0.678,0.636,��쐼,4.8,��
2020/10/04,22:00,0.680,0.971,0.615,1.178,0.851,0.390,0.679,0.636,��쐼,6.8,��
2020/10/04,22:10,0.680,0.969,0.617,1.180,0.853,0.390,0.678,0.638,��쐼,7.5,��
2020/10/04,22:20,0.679,0.969,0.617,1.180,0.853,0.390,0.677,0.638,��,6.9,��
2020/10/04,22:30,0.679,0.969,0.616,1.179,0.852,0.389,0.678,0.637,��,6.8,��
2020/10/04,22:40,0.679,0.970,0.616,1.180,0.853,0.390,0.678,0.636,��,6.6,��
2020/10/04,22:50,0.678,0.969,0.617,1.180,0.851,0.390,0.678,0.638,��,4.1,��
2020/10/04,23:00,0.678,0.968,0.618,1.179,0.851,0.388,0.678,0.638,��,2.2,��
2020/10/04,23:10,0.679,0.969,0.616,1.180,0.851,0.388,0.679,0.637,��,3.4,��
2020/10/04,23:20,0.680,0.967,0.617,1.180,0.852,0.389,0.677,0.637,��,6.7,��
2020/10/04,23:30,0.679,0.968,0.618,1.179,0.852,0.389,0.678,0.636,��,8.1,��
2020/10/04,23:40,0.678,0.969,0.616,1.178,0.852,0.390,0.680,0.637,��쐼,7.7,��
2020/10/04,23:50,0.679,0.970,0.616,1.176,0.853,0.389,0.676,0.637,��쐼,7.2,��
